Regional Weather Roundup
Issued by NWS

Home | Current Version | Previous Version | Graphics & Text | Print | Product List | Glossary On
Versions: 1 2 3 4 5 6 7 8 9 10 11 12 13 14 15 16 17 18 19 20 21 22 23 24 25 26 27 28 29 30 31 32 33 34 35 36 37 38 39 40 41 42 43 44 45 46 47 48 49 50
358
ASUS43 KIND 181100
RWRIN

WEATHER ROUNDUP FOR INDIANA
NATIONAL WEATHER SERVICE INDIANAPOLIS IN
700 AM EDT FRI AUG 18 2017

NOTE: "FAIR" INDICATES FEW OR NO CLOUDS BELOW 12,000 FEET WITH NO
SIGNIFICANT WEATHER AND/OR OBSTRUCTIONS TO VISIBILITY.

* - STATION DOES NOT REPORT WEATHER SUCH AS PRECIPITATION OR FOG.

+ - STATION NOT QUALITY CONTROLLED BY THE NATIONAL WEATHER SERVICE.
    USE DATA WITH CAUTION...ESPECIALLY DEWPOINT AND RELATIVE
    HUMIDITY OBSERVATIONS.

INZ001>003-010>013-019-020-181200-
NORTHWEST INDIANA

CITY           SKY/WX    TMP DP  RH WIND       PRES   REMARKS
GARY /AIRPORT/ PTCLDY    68  64  88 W10       29.82R
MICHIGAN CITY+ MOCLDY    70  61  73 W9        29.81R
MONTICELLO +   CLEAR     65  63  94 SW7       29.84S
RENSSELAER +   CLEAR     63  59  88 SW6       29.85R

$$

LMZ046-743>745-181200-
SOUTHERN LAKE MICHIGAN

STATION/POSITION TIME  TEMP    WIND        PRES    WAVE
                       AIR SEA DIR/SP/G            HT
                 (UTC) (F)     (DEG/KT/KT) (MB)    (FT)
BURNS HARBOR     1040   71     280/ 15/ 18 1009.8R
MICHIGAN CITY    1030   71     260/ 21/ 23   N/A
5NW MICH CITY    1050   71 74  290/ 16/ 19   N/A     4

$$

INZ004-005-014>016-021>024-181200-
NORTH CENTRAL INDIANA

CITY           SKY/WX    TMP DP  RH WIND       PRES   REMARKS
ELKHART        CLEAR     66  63  88 SW6       29.79
GOSHEN         CLEAR     66  62  87 SW8       29.80R
SOUTH BEND     PTCLDY    64  64 100 SW5       29.80R
WARSAW +       CLEAR     64  64 100 SW6       29.81S

$$

INZ006>009-017-018-025>027-181200-
NORTHEAST INDIANA

CITY           SKY/WX    TMP DP  RH WIND       PRES   REMARKS
FORT WAYNE     PTCLDY    66  63  90 SW9       29.83R
KENDALLVILLE + PTCLDY    65  65  97 SW8       29.81R

$$

INZ028-029-035-036-043>045-051>053-181200-
WEST CENTRAL INDIANA

CITY           SKY/WX    TMP DP  RH WIND       PRES   REMARKS
LAFAYETTE      CLEAR     63  63 100 W5        29.85R
TERRE HAUTE    CLEAR     63  61  93 SW5       29.90R

$$

INZ030>032-037>040-046>048-054>057-064-065-181200-
CENTRAL INDIANA

CITY           SKY/WX    TMP DP  RH WIND       PRES   REMARKS
COLUMBUS       CLEAR     66  64  94 CALM      29.89
GREENWOOD *+   CLEAR     66  64  93 W3        29.89R
INDIANAPOLIS   PTCLDY    66  64  93 W9        29.87R
-EAGLE CREEK   CLEAR     68  64  87 VRB3      29.87R
KOKOMO +       CLEAR     65  63  93 SW7       29.86R
MT COMFORT *+  CLEAR     64  63  94 W6        29.88R
SHELBYVILLE    CLEAR     67  64  90 SW6       29.87R

$$

INZ033-034-041-042-049-050-058-059-181200-
EAST CENTRAL INDIANA

CITY           SKY/WX    TMP DP  RH WIND       PRES   REMARKS
MUNCIE         CLEAR     69  65  86 SW7       29.86R
RICHMOND +     CLEAR     64  64 100 SW5       29.89R FOG

$$

INZ060-061-067>069-081>083-085>088-181200-
SOUTHWEST INDIANA

CITY           SKY/WX    TMP DP  RH WIND       PRES   REMARKS
EVANSVILLE     CLEAR     69  66  90 W5        29.92R
HUNTINGBURG +  CLEAR     68  67  96 MISG      29.92R

$$

INZ062-063-066-070>080-084-089>092-181200-
SOUTH CENTRAL AND SOUTHEAST INDIANA

CITY           SKY/WX    TMP DP  RH WIND       PRES   REMARKS
BLOOMINGTON    CLEAR     67  63  87 CALM      29.90R
MADISON *+     CLEAR     70  68  94 SW3       29.91S
SEYMOUR +      CLEAR     68  68 100 CALM      29.89R FOG

$$





USA.gov is the U.S. government's official web portal to all federal, state and local government web resources and services.